ANZ619 NZAA-NZQN

Flight info

Callsign ANZ619
Flight time 1h 33m
Altitude 36000
Route KAPAI Y320 DOVOT
Aircraft A321/M-SDE3FGHIRWY/LB1

Departure

Time 2026-05-06 01:38
Airport Auckland International Airport (NZAA)

Arrival

Time 2026-05-06 03:11
Airport Queenstown Airport (NZQN)
Time Latitude Longitude Altitude Speed Heading
2026-05-06 01:23 -37.00698 174.79187 21 ft 0 kts 340°
2026-05-06 01:27 -37.00710 174.79192 23 ft 2 kts 334°
2026-05-06 01:27 -37.00725 174.79201 22 ft 2 kts 332°
2026-05-06 01:28 -37.00739 174.79212 21 ft 2 kts 316°
2026-05-06 01:28 -37.00750 174.79228 20 ft 2 kts 287°
2026-05-06 01:28 -37.00752 174.79247 21 ft 2 kts 252°
2026-05-06 01:28 -37.00750 174.79252 22 ft 0 kts 251°
2026-05-06 01:30 -37.00768 174.79187 20 ft 16 kts 251°
2026-05-06 01:30 -37.00807 174.79044 22 ft 17 kts 251°
2026-05-06 01:30 -37.00842 174.78915 23 ft 15 kts 251°
2026-05-06 01:31 -37.00874 174.78798 24 ft 13 kts 251°
2026-05-06 01:31 -37.00901 174.78699 27 ft 14 kts 250°
2026-05-06 01:31 -37.00946 174.78568 26 ft 15 kts 221°
2026-05-06 01:31 -37.01042 174.78517 26 ft 22 kts 243°
2026-05-06 01:32 -37.01094 174.78321 26 ft 24 kts 251°
2026-05-06 01:32 -37.01150 174.78122 23 ft 24 kts 250°
2026-05-06 01:32 -37.01204 174.77933 23 ft 23 kts 251°
2026-05-06 01:32 -37.01254 174.77745 22 ft 22 kts 252°
2026-05-06 01:33 -37.01303 174.77570 22 ft 21 kts 251°
2026-05-06 01:33 -37.01349 174.77402 22 ft 19 kts 251°
2026-05-06 01:33 -37.01384 174.77275 23 ft 13 kts 250°
2026-05-06 01:33 -37.01410 174.77183 23 ft 10 kts 250°
2026-05-06 01:34 -37.01420 174.77149 22 ft 1 kts 250°
2026-05-06 01:34 -37.01425 174.77135 22 ft 6 kts 243°
2026-05-06 01:34 -37.01478 174.77103 22 ft 8 kts 192°
2026-05-06 01:34 -37.01489 174.77100 23 ft 0 kts 192°
2026-05-06 01:35 -37.01503 174.77097 21 ft 8 kts 188°
2026-05-06 01:36 -37.01583 174.77084 21 ft 12 kts 181°
2026-05-06 01:36 -37.01615 174.77137 22 ft 6 kts 75°
2026-05-06 01:36 -37.01614 174.77141 22 ft 0 kts 74°
2026-05-06 01:37 -37.01588 174.77254 23 ft 45 kts 72°
2026-05-06 01:37 -37.01406 174.77894 21 ft 108 kts 71°
2026-05-06 01:37 -37.01108 174.78969 29 ft 154 kts 71°
2026-05-06 01:38 -37.00725 174.80335 294 ft 170 kts 71°
2026-05-06 01:38 -37.00668 174.81733 1125 ft 158 kts 101°
2026-05-06 01:38 -37.01264 174.82940 1634 ft 174 kts 137°
2026-05-06 01:38 -37.02399 174.83551 2141 ft 188 kts 170°
2026-05-06 01:39 -37.03768 174.83351 2345 ft 209 kts 191°
2026-05-06 01:39 -37.05257 174.83008 2481 ft 227 kts 188°
2026-05-06 01:39 -37.06854 174.82698 2843 ft 235 kts 188°
2026-05-06 01:39 -37.08474 174.82394 3464 ft 235 kts 187°
2026-05-06 01:40 -37.10102 174.82088 4048 ft 237 kts 187°
2026-05-06 01:40 -37.11742 174.81776 4629 ft 239 kts 188°
2026-05-06 01:40 -37.13391 174.81423 5208 ft 242 kts 195°
2026-05-06 01:40 -37.14955 174.80595 5639 ft 251 kts 210°
2026-05-06 01:41 -37.16547 174.79469 5832 ft 275 kts 211°
2026-05-06 01:41 -37.18243 174.78252 6376 ft 285 kts 211°
2026-05-06 01:41 -37.19953 174.77021 7066 ft 289 kts 211°
2026-05-06 01:41 -37.21731 174.75743 7788 ft 292 kts 211°
2026-05-06 01:42 -37.23483 174.74485 8501 ft 295 kts 211°
2026-05-06 01:42 -37.25272 174.73203 9235 ft 297 kts 212°
2026-05-06 01:42 -37.27075 174.71916 9962 ft 300 kts 212°
2026-05-06 01:42 -37.28899 174.70612 10575 ft 306 kts 212°
2026-05-06 01:43 -37.30821 174.69235 10717 ft 329 kts 212°
2026-05-06 01:43 -37.32873 174.67763 10905 ft 348 kts 212°
2026-05-06 01:43 -37.34999 174.66238 11445 ft 354 kts 211°
2026-05-06 01:43 -37.37149 174.64701 12105 ft 357 kts 211°
2026-05-06 01:44 -37.39312 174.63155 12773 ft 359 kts 211°
2026-05-06 01:44 -37.41488 174.61596 13435 ft 361 kts 211°
2026-05-06 01:44 -37.43679 174.60023 14092 ft 364 kts 211°
2026-05-06 01:44 -37.45883 174.58437 14688 ft 366 kts 211°
2026-05-06 01:45 -37.48107 174.56834 15260 ft 369 kts 212°
2026-05-06 01:45 -37.50346 174.55221 15832 ft 372 kts 212°
2026-05-06 01:45 -37.52575 174.53617 16390 ft 375 kts 212°
2026-05-06 01:45 -37.54893 174.52081 16946 ft 379 kts 205°
2026-05-06 01:46 -37.57325 174.50766 17498 ft 382 kts 205°
2026-05-06 01:46 -37.59783 174.49439 18055 ft 385 kts 205°
2026-05-06 01:46 -37.62255 174.48102 18603 ft 388 kts 206°
2026-05-06 01:46 -37.64741 174.46751 19073 ft 390 kts 206°
2026-05-06 01:47 -37.67244 174.45384 19566 ft 392 kts 206°
2026-05-06 01:47 -37.69748 174.44018 20057 ft 393 kts 205°
2026-05-06 01:47 -37.72261 174.42651 20562 ft 393 kts 205°
2026-05-06 01:47 -37.74747 174.41297 21050 ft 394 kts 205°
2026-05-06 01:48 -37.77273 174.39919 21553 ft 395 kts 205°
2026-05-06 01:48 -37.79806 174.38536 22035 ft 396 kts 205°
2026-05-06 01:48 -37.82339 174.37152 22525 ft 398 kts 205°
2026-05-06 01:48 -37.84887 174.35761 23000 ft 399 kts 205°
2026-05-06 01:49 -37.87439 174.34365 23472 ft 400 kts 205°
2026-05-06 01:49 -37.89999 174.32962 23925 ft 401 kts 204°
2026-05-06 01:49 -37.92563 174.31560 24307 ft 402 kts 204°
2026-05-06 01:49 -37.95133 174.30152 24684 ft 403 kts 204°
2026-05-06 01:50 -37.96843 174.29216 24927 ft 404 kts 204°
2026-05-06 01:50 -37.99427 174.27797 25277 ft 405 kts 204°
2026-05-06 01:50 -38.02025 174.26371 25622 ft 407 kts 204°
2026-05-06 01:50 -38.05476 174.24478 26092 ft 409 kts 204°
2026-05-06 01:51 -38.07311 174.23470 26342 ft 410 kts 204°
2026-05-06 01:51 -38.09931 174.22027 26697 ft 411 kts 204°
2026-05-06 01:51 -38.12556 174.20581 27041 ft 412 kts 204°
2026-05-06 01:51 -38.14872 174.19303 27332 ft 413 kts 204°
2026-05-06 01:52 -38.17510 174.17845 27676 ft 414 kts 204°
2026-05-06 01:52 -38.20158 174.16382 28003 ft 416 kts 204°
2026-05-06 01:52 -38.22817 174.14914 28327 ft 417 kts 204°
2026-05-06 01:52 -38.25484 174.13443 28643 ft 419 kts 204°
2026-05-06 01:53 -38.28159 174.11966 28949 ft 420 kts 204°
2026-05-06 01:53 -38.30843 174.10480 29257 ft 421 kts 204°
2026-05-06 01:53 -38.33531 174.08989 29556 ft 422 kts 204°
2026-05-06 01:53 -38.36224 174.07492 29847 ft 423 kts 204°
2026-05-06 01:54 -38.38929 174.05989 30134 ft 425 kts 204°
2026-05-06 01:54 -38.41640 174.04483 30414 ft 426 kts 204°
2026-05-06 01:54 -38.44361 174.02967 30652 ft 427 kts 204°
2026-05-06 01:54 -38.47086 174.01448 30908 ft 428 kts 204°
2026-05-06 01:55 -38.49811 173.99929 31262 ft 427 kts 204°
2026-05-06 01:55 -38.52532 173.98414 31615 ft 425 kts 204°
2026-05-06 01:55 -38.55237 173.96905 31965 ft 424 kts 204°
2026-05-06 01:55 -38.57906 173.95416 32305 ft 423 kts 204°
2026-05-06 01:56 -38.60604 173.93911 32647 ft 422 kts 204°
2026-05-06 01:56 -38.63294 173.92411 32991 ft 421 kts 204°
2026-05-06 01:56 -38.65972 173.90917 33323 ft 419 kts 205°
2026-05-06 01:56 -38.68648 173.89418 33600 ft 420 kts 205°
2026-05-06 01:57 -38.71328 173.87912 33864 ft 421 kts 205°
2026-05-06 01:57 -38.74011 173.86404 34185 ft 420 kts 205°
2026-05-06 01:57 -38.76689 173.84895 34487 ft 419 kts 205°
2026-05-06 01:57 -38.79356 173.83391 34743 ft 419 kts 205°
2026-05-06 01:58 -38.82027 173.81886 34979 ft 419 kts 205°
2026-05-06 01:58 -38.84698 173.80384 35200 ft 419 kts 205°
2026-05-06 01:58 -38.87371 173.78880 35434 ft 420 kts 206°
2026-05-06 01:58 -38.90042 173.77376 35649 ft 420 kts 206°
2026-05-06 01:59 -38.92716 173.75866 35866 ft 420 kts 206°
2026-05-06 01:59 -38.95355 173.74373 36077 ft 420 kts 206°
2026-05-06 01:59 -38.98037 173.72851 36288 ft 420 kts 206°
2026-05-06 01:59 -39.00717 173.71328 36366 ft 420 kts 206°
2026-05-06 02:00 -39.05901 173.67971 36380 ft 415 kts 215°
2026-05-06 02:00 -39.10730 173.63900 36372 ft 415 kts 215°
2026-05-06 02:01 -39.15557 173.59819 36363 ft 415 kts 215°
2026-05-06 02:01 -39.20383 173.55733 36362 ft 415 kts 215°
2026-05-06 02:02 -39.25203 173.51639 36364 ft 415 kts 216°
2026-05-06 02:02 -39.29996 173.47566 36369 ft 415 kts 216°
2026-05-06 02:03 -39.34825 173.43471 36368 ft 415 kts 216°
2026-05-06 02:03 -39.39653 173.39363 36385 ft 416 kts 216°
2026-05-06 02:04 -39.44485 173.35235 36379 ft 416 kts 216°
2026-05-06 02:04 -39.49311 173.31105 36387 ft 415 kts 216°
2026-05-06 02:05 -39.54134 173.26976 36369 ft 415 kts 216°
2026-05-06 02:05 -39.58953 173.22848 36364 ft 415 kts 216°
2026-05-06 02:06 -39.63765 173.18711 36389 ft 415 kts 216°
2026-05-06 02:06 -39.68573 173.14575 36362 ft 414 kts 216°
2026-05-06 02:07 -39.73378 173.10423 36351 ft 415 kts 216°
2026-05-06 02:07 -39.78187 173.06264 36347 ft 416 kts 216°
2026-05-06 02:08 -39.82975 173.02126 36360 ft 416 kts 216°
2026-05-06 02:08 -39.87796 172.97955 36360 ft 416 kts 216°
2026-05-06 02:09 -39.92621 172.93765 36368 ft 417 kts 217°
2026-05-06 02:09 -39.97442 172.89562 36368 ft 416 kts 217°
2026-05-06 02:10 -40.02255 172.85368 36362 ft 416 kts 217°
2026-05-06 02:10 -40.07065 172.81173 36361 ft 415 kts 217°
2026-05-06 02:11 -40.11868 172.76981 36359 ft 415 kts 217°
2026-05-06 02:11 -40.16667 172.72790 36357 ft 415 kts 217°
2026-05-06 02:12 -40.21460 172.68585 36347 ft 415 kts 217°
2026-05-06 02:12 -40.26253 172.64370 36360 ft 415 kts 217°
2026-05-06 02:13 -40.31043 172.60150 36358 ft 415 kts 217°
2026-05-06 02:13 -40.35830 172.55934 36360 ft 415 kts 217°
2026-05-06 02:14 -40.40622 172.51709 36360 ft 415 kts 217°
2026-05-06 02:14 -40.45403 172.47479 36358 ft 414 kts 217°
2026-05-06 02:15 -40.50148 172.43267 36354 ft 414 kts 217°
2026-05-06 02:15 -40.54925 172.39024 36345 ft 414 kts 217°
2026-05-06 02:16 -40.59707 172.34769 36338 ft 415 kts 217°
2026-05-06 02:16 -40.64493 172.30510 36338 ft 416 kts 217°
2026-05-06 02:17 -40.69280 172.26238 36352 ft 416 kts 218°
2026-05-06 02:17 -40.74068 172.21960 36349 ft 415 kts 218°
2026-05-06 02:18 -40.78842 172.17674 36346 ft 415 kts 218°
2026-05-06 02:18 -40.83614 172.13385 36344 ft 415 kts 218°
2026-05-06 02:19 -40.88392 172.09102 36347 ft 415 kts 218°
2026-05-06 02:19 -40.93163 172.04816 36337 ft 414 kts 218°
2026-05-06 02:20 -41.00314 171.98362 36323 ft 415 kts 218°
2026-05-06 02:21 -41.05086 171.94031 36316 ft 416 kts 218°
2026-05-06 02:21 -41.09838 171.89727 36325 ft 416 kts 218°
2026-05-06 02:22 -41.14626 171.85382 36322 ft 417 kts 219°
2026-05-06 02:22 -41.19411 171.81026 36322 ft 417 kts 219°
2026-05-06 02:23 -41.24199 171.76676 36317 ft 417 kts 218°
2026-05-06 02:23 -41.28988 171.72311 36330 ft 417 kts 219°
2026-05-06 02:24 -41.33769 171.67924 36332 ft 417 kts 219°
2026-05-06 02:24 -41.38551 171.63537 36328 ft 417 kts 219°
2026-05-06 02:25 -41.43331 171.59153 36322 ft 417 kts 219°
2026-05-06 02:25 -41.48116 171.54751 36334 ft 417 kts 219°
2026-05-06 02:26 -41.52867 171.50381 36329 ft 417 kts 219°
2026-05-06 02:26 -41.57650 171.45986 36330 ft 417 kts 219°
2026-05-06 02:27 -41.62423 171.41574 36326 ft 416 kts 219°
2026-05-06 02:27 -41.67183 171.37161 36342 ft 416 kts 219°
2026-05-06 02:28 -41.71930 171.32750 36331 ft 415 kts 220°
2026-05-06 02:28 -41.76676 171.28338 36327 ft 414 kts 220°
2026-05-06 02:29 -41.81393 171.23956 36311 ft 415 kts 220°
2026-05-06 02:29 -41.86136 171.19533 36319 ft 415 kts 220°
2026-05-06 02:30 -41.90900 171.15069 36297 ft 423 kts 220°
2026-05-06 02:30 -41.94946 171.11261 36299 ft 431 kts 220°
2026-05-06 02:31 -41.99901 171.06594 36295 ft 437 kts 220°
2026-05-06 02:31 -42.04891 171.01888 36294 ft 437 kts 220°
2026-05-06 02:32 -42.09833 170.97222 36296 ft 436 kts 220°
2026-05-06 02:32 -42.14796 170.92528 36297 ft 436 kts 220°
2026-05-06 02:33 -42.19767 170.87822 36292 ft 436 kts 220°
2026-05-06 02:33 -42.21446 170.86233 36292 ft 437 kts 220°
2026-05-06 02:34 -42.29699 170.78374 36303 ft 437 kts 221°
2026-05-06 02:34 -42.34661 170.73629 36298 ft 437 kts 221°
2026-05-06 02:35 -42.39627 170.68888 36298 ft 437 kts 221°
2026-05-06 02:35 -42.44590 170.64147 36298 ft 436 kts 221°
2026-05-06 02:36 -42.49553 170.59379 36294 ft 437 kts 221°
2026-05-06 02:36 -42.54509 170.54613 36295 ft 437 kts 221°
2026-05-06 02:37 -42.59465 170.49833 36299 ft 437 kts 221°
2026-05-06 02:37 -42.64432 170.45034 36301 ft 438 kts 221°
2026-05-06 02:38 -42.69399 170.40234 36300 ft 440 kts 221°
2026-05-06 02:38 -42.74363 170.35424 36301 ft 440 kts 221°
2026-05-06 02:39 -42.79344 170.30588 36285 ft 439 kts 221°
2026-05-06 02:39 -42.84317 170.25758 36302 ft 439 kts 221°
2026-05-06 02:40 -42.89280 170.20922 36299 ft 439 kts 221°
2026-05-06 02:40 -42.94238 170.16073 36302 ft 438 kts 222°
2026-05-06 02:41 -42.99198 170.11216 36290 ft 439 kts 222°
2026-05-06 02:41 -43.04153 170.06347 36297 ft 439 kts 222°
2026-05-06 02:42 -43.09121 170.01466 36286 ft 439 kts 222°
2026-05-06 02:42 -43.14082 169.96573 36279 ft 439 kts 222°
2026-05-06 02:43 -43.19045 169.91676 36290 ft 440 kts 222°
2026-05-06 02:43 -43.24011 169.86774 36284 ft 440 kts 222°
2026-05-06 02:44 -43.28940 169.81888 36280 ft 439 kts 222°
2026-05-06 02:44 -43.33893 169.76969 36282 ft 439 kts 223°
2026-05-06 02:45 -43.38848 169.72045 36284 ft 440 kts 223°
2026-05-06 02:45 -43.43807 169.67098 36277 ft 440 kts 223°
2026-05-06 02:46 -43.48775 169.62136 36271 ft 440 kts 223°
2026-05-06 02:46 -43.53728 169.57175 36260 ft 440 kts 223°
2026-05-06 02:47 -43.58685 169.52195 36268 ft 440 kts 223°
2026-05-06 02:47 -43.63635 169.47213 36263 ft 441 kts 223°
2026-05-06 02:48 -43.68559 169.42251 36269 ft 441 kts 224°
2026-05-06 02:48 -43.73525 169.37236 36267 ft 442 kts 224°
2026-05-06 02:49 -43.78505 169.32207 36262 ft 443 kts 224°
2026-05-06 02:49 -43.83484 169.27170 36260 ft 443 kts 224°
2026-05-06 02:50 -43.88459 169.22109 36258 ft 443 kts 224°
2026-05-06 02:50 -43.93432 169.17044 36271 ft 444 kts 224°
2026-05-06 02:51 -43.98398 169.11966 36262 ft 443 kts 224°
2026-05-06 02:51 -44.03362 169.06891 36246 ft 442 kts 224°
2026-05-06 02:51 -44.05772 169.04434 36222 ft 427 kts 224°
2026-05-06 02:52 -44.08164 169.01996 35539 ft 428 kts 225°
2026-05-06 02:52 -44.10569 168.99523 34749 ft 431 kts 225°
2026-05-06 02:52 -44.12988 168.97027 33962 ft 434 kts 226°
2026-05-06 02:52 -44.15420 168.94512 33094 ft 438 kts 225°
2026-05-06 02:53 -44.17878 168.91977 32255 ft 442 kts 224°
2026-05-06 02:53 -44.20359 168.89419 31439 ft 445 kts 224°
2026-05-06 02:53 -44.22857 168.86841 30642 ft 449 kts 223°
2026-05-06 02:53 -44.25371 168.84239 29796 ft 451 kts 222°
2026-05-06 02:54 -44.27898 168.81616 28916 ft 453 kts 222°
2026-05-06 02:54 -44.30429 168.78990 28205 ft 452 kts 221°
2026-05-06 02:54 -44.32941 168.76388 27675 ft 447 kts 221°
2026-05-06 02:54 -44.35425 168.73811 27159 ft 442 kts 221°
2026-05-06 02:55 -44.37878 168.71262 26652 ft 437 kts 221°
2026-05-06 02:55 -44.40311 168.68734 26203 ft 439 kts 222°
2026-05-06 02:55 -44.42821 168.66107 25703 ft 459 kts 222°
2026-05-06 02:55 -44.45387 168.63417 25164 ft 462 kts 221°
2026-05-06 02:56 -44.47964 168.60721 24648 ft 461 kts 221°
2026-05-06 02:56 -44.50527 168.58042 24131 ft 458 kts 221°
2026-05-06 02:56 -44.53075 168.55379 23604 ft 456 kts 221°
2026-05-06 02:56 -44.55605 168.52731 23010 ft 452 kts 221°
2026-05-06 02:57 -44.58106 168.50109 22403 ft 446 kts 221°
2026-05-06 02:57 -44.60580 168.47514 21808 ft 441 kts 220°
2026-05-06 02:57 -44.63269 168.45451 21265 ft 445 kts 201°
2026-05-06 02:57 -44.66322 168.44894 20898 ft 445 kts 179°
2026-05-06 02:58 -44.69253 168.45918 20640 ft 438 kts 156°
2026-05-06 02:58 -44.71836 168.48097 20399 ft 429 kts 146°
2026-05-06 02:58 -44.74164 168.50642 20134 ft 419 kts 140°
2026-05-06 02:58 -44.76442 168.53108 19894 ft 408 kts 149°
2026-05-06 02:59 -44.78978 168.54710 19651 ft 392 kts 169°
2026-05-06 02:59 -44.81622 168.55018 19397 ft 374 kts 190°
2026-05-06 02:59 -44.84121 168.54223 18930 ft 365 kts 205°
2026-05-06 02:59 -44.86498 168.52990 18419 ft 362 kts 204°
2026-05-06 03:00 -44.88832 168.51834 17820 ft 348 kts 204°
2026-05-06 03:00 -44.91085 168.50764 17249 ft 334 kts 204°
2026-05-06 03:00 -44.93288 168.49693 16702 ft 334 kts 209°
2026-05-06 03:00 -44.95278 168.48076 16152 ft 326 kts 225°
2026-05-06 03:01 -44.96861 168.45875 15579 ft 311 kts 240°
2026-05-06 03:01 -44.97950 168.43365 15081 ft 290 kts 251°
2026-05-06 03:01 -44.98821 168.40873 14720 ft 277 kts 251°
2026-05-06 03:01 -44.99671 168.38458 14372 ft 272 kts 251°
2026-05-06 03:02 -45.00507 168.36083 14022 ft 266 kts 251°
2026-05-06 03:02 -45.01318 168.33777 13602 ft 260 kts 252°
2026-05-06 03:02 -45.02111 168.31524 13017 ft 250 kts 252°
2026-05-06 03:02 -45.03026 168.29458 12485 ft 250 kts 241°
2026-05-06 03:03 -45.04247 168.27672 11961 ft 257 kts 229°
2026-05-06 03:03 -45.05756 168.26253 11440 ft 272 kts 216°
2026-05-06 03:03 -45.07578 168.25298 10930 ft 287 kts 201°
2026-05-06 03:03 -45.09608 168.24974 10404 ft 300 kts 185°
2026-05-06 03:04 -45.11699 168.25396 9977 ft 307 kts 168°
2026-05-06 03:04 -45.13658 168.26597 9557 ft 308 kts 148°
2026-05-06 03:04 -45.15213 168.28623 9144 ft 302 kts 124°
2026-05-06 03:04 -45.16171 168.31201 8742 ft 291 kts 102°
2026-05-06 03:05 -45.16479 168.33914 8330 ft 272 kts 83°
2026-05-06 03:05 -45.16205 168.36507 7952 ft 264 kts 65°
2026-05-06 03:05 -45.15464 168.38825 7539 ft 254 kts 54°
2026-05-06 03:05 -45.14654 168.40993 7150 ft 243 kts 55°
2026-05-06 03:06 -45.13885 168.43063 6736 ft 232 kts 57°
2026-05-06 03:06 -45.13134 168.45069 6289 ft 228 kts 58°
2026-05-06 03:06 -45.12392 168.47039 5835 ft 225 kts 58°
2026-05-06 03:06 -45.11672 168.48958 5521 ft 216 kts 59°
2026-05-06 03:07 -45.10965 168.50842 5481 ft 217 kts 58°
2026-05-06 03:07 -45.10252 168.52731 5196 ft 215 kts 58°
2026-05-06 03:07 -45.09560 168.54564 4657 ft 207 kts 59°
2026-05-06 03:07 -45.08895 168.56329 4126 ft 200 kts 60°
2026-05-06 03:08 -45.08262 168.58014 3593 ft 188 kts 60°
2026-05-06 03:08 -45.07662 168.59613 3073 ft 179 kts 59°
2026-05-06 03:08 -45.07123 168.61057 2975 ft 158 kts 58°
2026-05-06 03:08 -45.06625 168.62381 2908 ft 148 kts 57°
2026-05-06 03:09 -45.06137 168.63644 2764 ft 144 kts 57°
2026-05-06 03:09 -45.05647 168.64869 2627 ft 142 kts 56°
2026-05-06 03:09 -45.05149 168.66066 2470 ft 140 kts 56°
2026-05-06 03:09 -45.04587 168.67218 2262 ft 142 kts 50°
2026-05-06 03:10 -45.03931 168.68278 2090 ft 143 kts 46°
2026-05-06 03:10 -45.03276 168.69341 1871 ft 142 kts 49°
2026-05-06 03:10 -45.02747 168.70525 1688 ft 143 kts 62°
2026-05-06 03:10 -45.02377 168.71822 1487 ft 141 kts 66°
2026-05-06 03:11 -45.02083 168.73142 1281 ft 139 kts 71°
2026-05-06 03:11 -45.01862 168.74435 1178 ft 124 kts 75°
2026-05-06 03:11 -45.01737 168.75235 1176 ft 40 kts 78°
2026-05-06 03:11 -45.01703 168.75466 1182 ft 21 kts 78°
2026-05-06 03:12 -45.01673 168.75655 1181 ft 19 kts 77°
2026-05-06 03:12 -45.01661 168.75820 1180 ft 12 kts 74°
2026-05-06 03:12 -45.01641 168.75824 1177 ft 3 kts 281°
2026-05-06 03:12 -45.01667 168.75672 1181 ft 29 kts 256°
2026-05-06 03:13 -45.01727 168.75303 1178 ft 46 kts 258°
2026-05-06 03:13 -45.01800 168.74803 1171 ft 56 kts 257°
2026-05-06 03:13 -45.01879 168.74290 1176 ft 44 kts 257°
2026-05-06 03:13 -45.01968 168.74104 1175 ft 11 kts 197°
2026-05-06 03:14 -45.02043 168.74059 1170 ft 11 kts 201°
2026-05-06 03:14 -45.02100 168.74085 1172 ft 5 kts 165°
2026-05-06 03:14 -45.02133 168.74067 1169 ft 5 kts 206°
2026-05-06 03:14 -45.02139 168.74062 1172 ft 0 kts 206°